This demonstration page uses our WeatherBlox Daily Observations layout. Learn more.

Hourly Observations for October 6, 2019

Temp ( °F °C ) Dew Point ( °F °C ) Humidity (%) Winds ( mph kmh ) Pressure ( in mb ) Visibility ( mi km ) Precip ( " mm )
12:15 am 00:15 Cloudy 61 16 52 11 72 72 SSE 13 20 30.3 1026 10 16.09344 0 0
12:35 am 00:35 Cloudy 61 16 52 11 72 72 S 12 19 30.3 1026 10 16.09344 0 0
12:55 am 00:55 Cloudy 61 16 54 12 77 77 S 8 13 30.3 1026 10 16.09344 0 0
1:15 am 01:15 Cloudy 61 16 54 12 77 77 S 7 11 30.3 1026 10 16.09344 0 0
1:35 am 01:35 Cloudy 61 16 54 12 77 77 SSE 9 15 30.3 1026 10 16.09344 0 0
1:55 am 01:55 Cloudy 59 15 54 12 82 82 S 7 11 30.3 1026 10 16.09344 0 0
2:15 am 02:15 Cloudy 59 15 54 12 82 82 S 7 11 30.3 1026 10 16.09344 0 0
2:35 am 02:35 Cloudy 61 16 54 12 77 77 S 3 6 30.3 1026 10 16.09344 0 0
2:55 am 02:55 Cloudy 61 16 54 12 77 77 S 3 6 30.3 1026 10 16.09344 0 0
3:15 am 03:15 Cloudy 59 15 54 12 82 82 Calm 30.27 1025 10 16.09344 0 0
3:35 am 03:35 Cloudy 59 15 54 12 82 82 S 5 7 30.27 1025 10 16.09344 0 0
3:55 am 03:55 Cloudy 59 15 55 13 88 88 SSW 5 7 30.27 1025 10 16.09344 0 0
4:15 am 04:15 Cloudy 59 15 55 13 88 88 SSE 5 7 30.27 1025 10 16.09344 0 0
4:35 am 04:35 Cloudy 59 15 55 13 88 88 SSE 7 11 30.27 1025 10 16.09344 0 0
4:55 am 04:55 Cloudy 59 15 55 13 88 88 S 5 7 30.27 1025 10 16.09344 0 0
5:15 am 05:15 Cloudy 59 15 55 13 88 88 S 6 9 30.27 1025 10 16.09344 0 0
5:35 am 05:35 Cloudy 59 15 55 13 88 88 S 7 11 30.27 1025 10 16.09344 0 0
5:55 am 05:55 Cloudy 59 15 55 13 88 88 S 7 11 30.27 1025 10 16.09344 0 0
6:15 am 06:15 Cloudy 59 15 55 13 88 88 S 6 9 30.27 1025 10 16.09344 0 0
6:35 am 06:35 Cloudy 59 15 55 13 88 88 SSW 3 6 30.27 1025 10 16.09344 0 0
6:55 am 06:55 Cloudy 59 15 55 13 88 88 S 3 6 30.27 1025 10 16.09344 0 0
7:15 am 07:15 Cloudy 59 15 57 14 94 94 Calm 30.27 1025 10 16.09344 0 0
7:35 am 07:35 Cloudy 59 15 57 14 94 94 S 5 7 30.27 1025 10 16.09344 0 0
7:55 am 07:55 Cloudy 59 15 57 14 94 94 S 3 6 30.27 1025 10 16.09344 0 0
8:15 am 08:15 Cloudy 61 16 57 14 88 88 S 5 7 30.27 1025 10 16.09344 0 0
8:35 am 08:35 Cloudy 61 16 57 14 88 88 S 5 7 30.3 1026 10 16.09344 0 0
8:55 am 08:55 Cloudy 61 16 57 14 88 88 S 5 7 30.3 1026 10 16.09344 0 0
9:15 am 09:15 Cloudy 61 16 57 14 88 88 SSW 5 7 30.3 1026 10 16.09344 0 0
9:35 am 09:35 Cloudy 63 17 57 14 83 83 S 8 13 30.3 1026 10 16.09344 0 0
9:55 am 09:55 Cloudy 63 17 57 14 83 83 S 6 9 30.3 1026 10 16.09344 0 0
10:15 am 10:15 Cloudy 63 17 59 15 88 88 SSW 8 13 30.3 1026 10 16.09344 0 0
10:35 am 10:35 Cloudy 64 18 59 15 83 83 S 9 15 30.27 1025 10 16.09344 0 0
10:55 am 10:55 Cloudy 64 18 59 15 83 83 S 12 19 30.3 1026 10 16.09344 0 0
11:15 am 11:15 Cloudy 64 18 59 15 83 83 SSW 10 17 30.27 1025 10 16.09344 0 0
11:35 am 11:35 Cloudy 66 19 59 15 78 78 S 12 19 30.27 1025 10 16.09344 0 0
11:55 am 11:55 Cloudy 68 20 59 15 73 73 SSW 9 15 30.27 1025 10 16.09344 0 0
12:15 pm 12:15 Cloudy 68 20 59 15 73 73 S 14 22 30.27 1025 10 16.09344 0 0
12:35 pm 12:35 Cloudy 68 20 59 15 73 73 S 14 22 30.27 1025 10 16.09344 0 0
12:55 pm 12:55 Cloudy 68 20 59 15 73 73 SSW 16 26 30.27 1025 10 16.09344 0 0
1:15 pm 13:15 Cloudy 68 20 59 15 73 73 SSW 14 22 30.27 1025 10 16.09344 0 0
1:35 pm 13:35 Cloudy 68 20 59 15 73 73 SSW 17 28 30.27 1025 10 16.09344 0 0
1:55 pm 13:55 Cloudy 68 20 59 15 73 73 SSW 9 15 30.27 1025 10 16.09344 0 0
2:15 pm 14:15 Cloudy 68 20 61 16 78 78 SSW 6 9 30.24 1024 10 16.09344 0 0
2:35 pm 14:35 Cloudy 68 20 61 16 78 78 S 12 19 30.24 1024 10 16.09344 0 0
2:55 pm 14:55 Cloudy 68 20 61 16 78 78 S 10 17 30.24 1024 10 16.09344 0 0
3:15 pm 15:15 Cloudy 70 21 61 16 73 73 S 14 22 30.24 1024 10 16.09344 0 0
3:35 pm 15:35 Cloudy 70 21 61 16 73 73 S 10 17 30.24 1024 10 16.09344 0 0
3:55 pm 15:55 Cloudy 70 21 63 17 78 78 S 13 20 30.24 1024 10 16.09344 0 0
4:15 pm 16:15 Cloudy 70 21 63 17 78 78 SSW 13 20 30.24 1024 10 16.09344 0 0
4:35 pm 16:35 Mostly Cloudy 70 21 63 17 78 78 S 13 20 30.21 1023 10 16.09344 0 0
4:55 pm 16:55 Mostly Cloudy 70 21 63 17 78 78 S 13 20 30.21 1023 10 16.09344 0 0
5:15 pm 17:15 Partly Cloudy 70 21 63 17 78 78 S 12 19 30.21 1023 10 16.09344 0 0
5:35 pm 17:35 Mostly Cloudy 70 21 63 17 78 78 SSW 10 17 30.21 1023 10 16.09344 0 0
5:55 pm 17:55 Cloudy 68 20 63 17 83 83 S 7 11 30.21 1023 10 16.09344 0 0
6:15 pm 18:15 Partly Cloudy 70 21 63 17 78 78 S 8 13 30.21 1023 10 16.09344 0 0
6:35 pm 18:35 Mostly Cloudy 70 21 63 17 78 78 S 10 17 30.21 1023 10 16.09344 0 0
6:55 pm 18:55 Mostly Cloudy 70 21 61 16 73 73 S 9 15 30.21 1023 10 16.09344 0 0
7:15 pm 19:15 Cloudy 68 20 61 16 78 78 S 8 13 30.21 1023 10 16.09344 0 0
7:35 pm 19:35 Cloudy 68 20 63 17 83 83 S 7 11 30.21 1023 10 16.09344 0 0
7:55 pm 19:55 Mostly Cloudy 68 20 61 16 78 78 S 9 15 30.21 1023 10 16.09344 0 0
8:15 pm 20:15 Partly Cloudy 68 20 61 16 78 78 S 6 9 30.21 1023 10 16.09344 0 0
8:35 pm 20:35 Mostly Cloudy 68 20 61 16 78 78 S 9 15 30.21 1023 10 16.09344 0 0
8:55 pm 20:55 Cloudy 68 20 63 17 83 83 S 8 13 30.24 1024 10 16.09344 0 0
9:15 pm 21:15 Cloudy 68 20 63 17 83 83 S 7 11 30.24 1024 10 16.09344 0 0
9:35 pm 21:35 Cloudy 68 20 63 17 83 83 S 7 11 30.24 1024 10 16.09344 0 0
9:55 pm 21:55 Cloudy 68 20 63 17 83 83 S 8 13 30.24 1024 10 16.09344 0 0
10:15 pm 22:15 Cloudy 68 20 63 17 83 83 S 8 13 30.24 1024 10 16.09344 0 0
10:35 pm 22:35 Cloudy 68 20 63 17 83 83 S 8 13 30.24 1024 10 16.09344 0 0
10:55 pm 22:55 Cloudy 66 19 63 17 88 88 S 8 13 30.24 1024 10 16.09344 0 0
11:15 pm 23:15 Partly Cloudy 66 19 63 17 88 88 S 9 15 30.21 1023 10 16.09344 0 0
11:35 pm 23:35 Clear 66 19 63 17 88 88 SSW 7 11 30.21 1023 10 16.09344 0 0
11:55 pm 23:55 Partly Cloudy 66 19 63 17 88 88 S 6 9 30.21 1023 10 16.09344 0 0

Powered by AerisWeather